铱星星座 180星 (IRIDIUM 180)

导读 | 豆包AI

IRIDIUM 180是美国发射的第二代铱星(Iridium-NEXT)通信卫星,于2019年1月11日发射入轨,属于全球铱星卫星通信星座的组成部分。该卫星运行在约780公里高度的近地轨道,轨道倾角约86.4°,主要提供全球覆盖的语音和数据通信服务,设计使用寿命约12.5年,补充完善了铱星系统的全球无缝通信能力。

基本信息
目录编号:
43922
目录名称:
IRIDIUM 180
国际标识:
2019-002A
轨道中心:
EARTH
卫星名称:
铱星星座 180星
卫星全名:
铱星星座 180星 (IRIDIUM 180)
卫星状态:
在轨 (已飞行2664 天)
发射日期:
2019-01-11 UTC
国别 :
美国 (US)
星等 :
--
轨道信息
数据来源 国际轨道数据 AOE轨道数据
星历时间 2026-04-28T19:03:31+0800
10小时前
查看轨道信息
2026-04-22T23:00:00+0800
6天前
查看轨道信息
半长轴 7155.801km 7155.797km
偏心率 0.000205 0.0002489
轨道倾角 86.402° 86.403°
近地点辐角 85.727° 98.043°
升交点赤经 14.379° 16.815°
平近点角 274.416° 29.977°
近地点 776.197km 775.878km
远地点 779.131km 779.442km
周期 100.403分钟 100.403分钟
每日圈数 14.342187 14.342202
详细信息
平衡模式:
三轴稳定
覆盖范围:
全球
运营商:
铱星通信公司
运营商所在国:
美国
制造商(研发单位):
阿莱尼亚宇航公司
制造商所在国:
意大利
使用方式:
暂无
卫星简介
铱星(Iridium)是由共66个运作中的通信卫星组成的卫星通信系统。这个系统原本规划77个通信卫星,所以用原子序数为77的铱元素来命名。铱卫星允许人们使用手持型电子设备进行全球性的语音及数据通讯。该卫星仍在工作。
2D轨道图
3D轨道图
轨道高度分析图
轨道倾角分析图
轨道综合分析图
查看轨道综合分析图